Probability
4 7 11 12 10 8 7 5 5 4 2 1 0 0 0 0 0 0 0 0 0 0 0 0 0 0 0 0 0 0 0 0 0 0 0 0 0 0 0 0 0 0 0
5 7 11 12 10 9 7 6 6 6 4 2 1 0 0 0 0 0 0 0 0 0 0 0 0 0 0 0 0 0 0 0 0 0 0 0 0 0 0 0 0 0 0
7 7 9 11 10 9 7 6 6 5 5 4 2 1 1 0 0 0 0 0 0 0 0 0 0 0 0 0 0 0 0 0 0 0 0 0 0 0 0 0 0 0 0
6 6 8 10 11 10 8 6 5 4 4 4 3 3 2 1 0 0 0 0 0 0 0 0 0 0 0 0 0 0 0 0 0 0 0 0 0 0 0 0 0 0 0
5 6 9 11 12 10 8 6 5 4 4 5 5 4 3 1 1 1 0 0 0 0 0 0 0 0 0 0 0 0 0 0 0 0 0 0 0 0 0 0 0 0 0
7 8 10 12 13 10 8 6 4 4 4 4 5 5 3 2 2 2 1 0 0 0 0 0 0 0 0 0 0 0 0 0 0 0 0 0 0 0 1 0 0 0 0
7 7 9 11 12 10 8 6 4 4 4 4 4 4 3 3 3 2 1 0 0 0 0 0 0 0 0 1 1 1 0 0 0 0 0 0 0 0 0 0 0 0 0
6 6 6 8 9 8 7 5 4 4 4 4 3 3 3 3 3 2 1 0 0 0 0 0 0 0 0 1 2 2 1 0 0 0 0 0 0 0 0 1 1 0 0
5 5 5 4 4 4 4 3 3 4 4 3 3 3 3 3 3 2 1 0 0 0 0 0 0 0 0 0 1 2 1 0 0 0 0 0 0 0 1 2 2 1 0
5 5 4 3 2 1 1 1 3 3 3 3 3 3 3 3 2 2 1 0 0 0 0 0 0 0 0 0 0 1 1 0 0 0 0 0 0 1 2 3 3 1 0
5 6 6 4 3 1 0 1 2 3 3 3 3 3 2 1 1 1 0 0 0 0 0 0 0 0 0 0 0 0 0 0 0 0 0 0 1 1 2 3 3 2 1
4 6 7 7 5 4 2 1 3 3 3 3 2 1 1 0 0 0 0 0 0 0 0 0 0 0 0 0 0 0 0 0 0 0 0 1 2 2 1 1 2 2 2
4 6 8 9 8 6 4 3 3 3 3 1 1 0 0 0 0 0 0 0 0 0 0 0 0 0 0 0 0 0 0 0 0 0 0 1 2 2 1 0 1 1 1
3 5 8 10 11 9 6 4 4 3 3 1 0 0 0 0 0 0 0 0 0 0 0 0 0 0 0 0 0 0 0 0 0 0 0 1 2 2 1 0 0 0 0
3 4 7 9 11 10 8 6 5 4 3 2 1 0 0 0 0 1 1 1 0 0 0 0 0 0 0 0 0 0 0 0 0 0 0 0 1 1 0 0 0 0 0
3 4 5 7 9 10 10 8 6 4 3 3 2 1 0 0 0 1 2 1 0 0 0 0 0 0 0 0 0 0 0 0 0 0 0 0 0 0 0 0 0 0 0
2 3 4 6 7 8 11 10 8 5 3 3 3 1 0 0 0 1 1 1 0 0 0 0 0 0 0 0 0 0 0 0 0 0 0 0 0 0 0 0 0 0 1
1 1 3 5 5 6 9 11 8 4 3 3 3 2 1 0 0 0 0 0 0 0 0 0 0 0 0 0 0 0 0 0 0 0 0 0 0 0 0 0 0 0 1
0 0 1 3 4 5 8 10 8 3 1 2 3 3 2 1 1 0 0 0 0 0 0 0 0 0 0 0 0 0 0 0 0 0 0 0 0 0 0 0 0 0 1
0 0 0 1 3 4 8 9 7 3 1 1 2 3 3 3 2 1 1 0 0 0 0 0 0 0 0 0 0 0 0 0 0 0 0 0 0 0 0 0 0 0 0
0 0 0 1 2 4 7 8 6 4 2 1 1 2 3 3 3 3 2 1 0 0 0 0 0 0 0 0 0 0 0 0 0 0 0 0 0 0 0 0 0 0 0
0 0 0 0 1 3 6 7 6 4 2 1 0 1 1 2 3 3 3 1 0 0 0 0 0 0 0 0 0 0 0 0 0 0 0 0 0 0 0 0 0 0 0
0 0 0 0 0 1 3 5 5 4 3 2 1 0 0 1 3 3 3 2 0 0 0 0 0 0 0 0 0 0 0 0 0 0 0 0 0 0 0 0 0 0 0
0 0 0 0 0 0 2 3 3 3 3 3 3 2 1 1 3 4 3 1 0 0 0 0 0 0 0 0 0 0 0 0 0 0 0 0 0 0 0 0 0 0 0
0 0 0 0 0 0 1 1 1 1 2 3 3 3 2 3 3 4 2 1 0 0 0 0 0 0 0 0 0 0 0 0 0 0 0 0 0 0 0 0 0 0 0
0 0 0 0 0 0 1 0 0 0 1 3 3 3 3 3 4 3 2 0 0 0 0 0 0 0 0 0 0 0 0 0 0 0 0 0 0 0 0 0 0 0 0
Wind_Speed
8 11 11 11 11 11 11 11 10 10 10 10 10 10 10 10 10 9 9 9 8 8 8 9 9 9 9 9 9 9 10 9 9 8 8 8 7 7 7 7 6 5 8
11 13 12 11 11 11 11 10 10 10 9 9 9 9 9 9 9 8 8 8 8 8 8 8 8 8 8 8 8 8 8 8 7 6 6 6 7 7 7 7 6 4 7
12 13 11 11 11 11 11 10 10 10 9 9 9 9 9 8 8 8 8 8 8 8 8 8 7 8 8 7 7 7 7 5 4 3 2 2 4 7 7 7 5 5 5
12 12 11 11 11 11 11 11 10 10 9 9 9 8 8 8 7 7 7 7 8 8 7 7 7 7 7 7 6 6 5 4 2 2 1 2 4 6 6 6 5 5 4
11 11 12 12 11 11 11 10 10 9 9 9 8 8 8 7 7 7 7 7 7 7 7 6 6 6 6 6 6 5 4 3 3 3 1 3 4 5 5 5 4 4 4
11 11 11 12 11 11 10 10 9 9 8 8 8 7 7 7 7 6 6 6 6 6 6 5 5 5 5 5 4 4 3 3 4 2 2 3 3 4 4 3 3 3 3
10 11 11 12 11 11 10 9 9 8 8 7 7 6 6 6 6 6 5 5 5 5 5 5 5 4 4 3 3 3 2 4 3 1 2 3 3 5 3 2 2 2 2
10 11 11 12 11 10 10 9 8 7 7 6 6 6 5 6 6 5 5 4 4 4 4 4 4 3 3 2 2 2 3 4 4 2 2 3 4 4 2 1 1 1 1
9 10 9 8 8 9 9 9 8 7 7 6 5 5 5 5 5 5 5 4 4 4 3 3 3 3 2 1 1 2 3 5 3 2 1 2 4 3 1 1 1 1 2
7 8 9 8 7 7 6 8 8 7 6 5 5 4 4 4 4 4 3 3 4 3 3 2 2 1 1 1 2 2 3 4 3 2 1 2 3 1 1 2 2 2 2
5 5 7 7 7 6 6 8 7 7 6 5 4 4 4 2 3 3 3 3 3 3 2 1 1 1 1 2 3 3 3 2 2 1 1 3 2 0 1 2 3 3 4
6 6 6 6 6 6 5 6 4 4 4 4 3 4 2 2 2 3 4 4 3 2 2 2 2 2 2 1 3 3 2 3 2 1 1 2 2 2 3 3 4 4 5
6 5 5 5 6 5 4 4 3 2 3 3 3 4 3 2 2 2 2 2 2 2 1 2 2 2 1 1 1 2 2 2 1 1 1 2 2 3 4 4 5 5 6
6 6 5 5 5 5 4 3 3 2 2 2 2 2 2 1 1 1 2 2 1 1 1 1 1 1 2 1 2 2 2 2 1 1 2 3 3 4 5 6 6 6 7
6 6 5 5 5 5 3 3 3 2 3 3 1 1 2 2 1 1 1 1 1 0 1 1 1 1 1 1 1 2 2 2 2 1 1 3 4 4 6 7 7 7 7
6 6 6 6 6 6 4 3 3 3 2 2 2 2 2 2 2 1 1 1 1 0 0 0 1 1 1 1 2 2 2 2 2 2 1 2 4 5 6 7 8 8 8
5 6 6 6 6 6 5 4 3 3 3 2 2 2 2 2 2 2 1 1 1 1 1 1 1 1 1 1 2 2 2 2 2 2 1 1 2 4 5 7 8 8 9
5 5 6 5 6 6 5 4 3 3 3 3 2 2 2 2 2 2 1 1 1 1 1 0 1 1 1 1 2 2 2 2 3 2 2 1 1 1 3 6 8 9 9
5 5 5 6 6 6 5 4 3 3 3 3 2 2 2 2 2 2 1 1 1 1 1 1 1 1 1 2 2 2 2 2 2 2 2 2 1 2 2 4 7 8 9
5 5 5 6 6 6 5 4 3 3 2 2 2 2 3 3 3 2 2 1 1 1 1 1 1 1 1 1 3 3 3 3 2 2 2 2 2 2 2 3 3 5 8
5 6 6 6 6 5 4 4 4 3 3 2 2 3 3 3 3 3 2 1 1 1 1 1 1 1 1 1 2 3 3 3 2 2 2 2 2 2 3 3 2 2 3
5 5 6 6 6 5 5 4 3 3 3 3 2 2 3 3 3 3 2 2 1 1 1 0 1 0 1 1 1 2 3 3 2 2 1 2 3 2 3 3 2 3 2
5 5 5 5 5 5 6 4 4 3 2 2 2 2 2 3 3 3 3 2 2 2 1 1 1 1 0 1 1 0 1 2 3 2 3 2 3 3 3 3 3 3 3
5 5 5 5 5 6 6 6 6 5 4 3 3 2 2 3 3 3 3 2 2 1 1 1 0 0 1 1 1 1 1 2 2 4 3 2 3 4 4 4 3 3 3
5 5 5 5 5 5 6 6 6 4 4 3 3 3 3 2 2 2 3 2 2 1 1 1 0 0 1 1 1 2 2 2 2 3 5 4 3 3 4 4 3 3 3
4 5 5 5 5 5 6 6 6 6 5 5 4 4 3 2 2 2 2 2 2 1 1 1 1 1 1 1 1 1 1 2 2 3 5 6 5 4 4 4 3 3 3
Wind_Direction
118 124 128 123 122 119 114 113 112 110 106 104 104 100 96 93 90 87 87 86 83 82 84 84 80 78 74 71 70 71 72 71 71 76 79 82 84 83 82 81 76 79 82
124 126 127 124 123 120 117 113 110 110 107 106 104 101 99 96 94 91 90 90 89 85 85 84 80 78 76 74 72 74 75 72 73 78 82 83 87 83 79 79 78 80 81
121 126 129 124 124 122 118 114 109 109 107 107 106 103 99 96 94 93 91 91 91 87 84 82 80 77 75 75 76 76 74 70 69 75 76 112 101 87 81 78 74 77 78
122 127 130 125 125 123 120 116 113 111 107 105 105 103 100 97 95 93 92 91 90 89 83 79 76 76 76 76 76 76 69 53 22 348 4 93 93 95 86 78 69 69 69
117 121 125 126 125 123 122 120 116 112 109 107 106 105 102 101 99 94 91 90 87 86 85 80 75 73 81 79 74 69 54 21 345 319 30 70 80 95 90 82 71 67 64
121 121 127 127 126 125 124 122 119 114 112 110 109 107 105 102 102 98 92 89 86 86 86 85 81 77 81 81 74 62 39 354 328 302 54 71 83 91 91 83 75 67 63
122 122 131 128 128 127 125 123 122 121 119 117 115 115 112 108 102 97 96 92 88 85 88 85 79 80 82 80 76 63 19 337 307 337 56 75 83 86 83 79 74 61 50
118 123 131 130 128 126 125 124 125 125 126 125 122 119 116 113 106 101 101 100 98 93 89 87 76 76 73 69 62 28 339 319 318 336 71 80 83 84 71 53 29 22 345
121 127 135 139 135 131 128 126 125 125 125 128 128 122 115 112 113 111 107 106 105 103 99 91 78 66 58 41 2 326 311 302 303 295 82 98 93 80 52 14 335 303 314
123 132 140 146 148 146 141 136 132 129 129 129 127 126 121 118 122 122 123 117 112 109 108 103 89 56 15 315 288 282 281 288 275 282 84 113 106 78 359 329 312 295 296
130 135 143 145 147 149 150 147 144 140 142 140 139 145 143 156 159 155 157 138 134 134 139 147 178 265 274 272 272 267 265 262 276 267 94 117 125 157 299 293 297 290 283
158 156 149 147 146 144 146 146 157 158 157 167 164 161 174 172 163 151 149 150 158 171 196 215 239 242 243 240 252 248 255 262 269 249 142 141 179 249 280 282 284 288 290
157 150 147 146 145 144 143 149 154 157 157 177 170 161 159 160 139 130 137 155 175 188 207 230 235 243 248 234 231 232 251 261 256 231 170 181 224 258 276 280 280 282 284
147 149 148 142 142 146 145 151 153 151 151 159 161 158 147 139 130 137 141 153 163 178 186 211 233 255 266 261 246 247 258 258 256 226 185 193 221 254 271 276 277 279 281
158 157 157 152 149 146 143 150 151 148 147 148 138 135 122 124 130 128 129 130 134 131 155 225 239 267 284 290 281 279 276 268 262 246 193 207 224 246 265 275 277 278 281
166 164 163 163 158 152 155 159 158 147 137 133 130 130 113 118 117 100 91 89 94 84 65 254 270 270 284 316 306 296 289 286 277 266 215 217 227 242 264 273 277 280 282
169 161 162 167 161 159 160 166 157 148 142 139 142 147 140 120 116 110 110 106 106 81 29 357 342 338 344 332 299 291 290 286 284 285 269 227 232 244 263 273 279 282 283
162 160 161 165 163 160 158 159 151 147 144 146 145 145 137 122 117 112 108 104 90 73 47 19 9 348 342 329 306 295 296 297 296 299 294 280 254 251 259 270 279 285 286
161 158 160 164 166 158 156 153 148 146 144 143 135 137 138 134 125 119 119 113 87 85 51 15 19 359 340 327 308 299 296 285 276 290 289 281 263 257 251 261 269 277 285
162 158 160 162 162 155 154 148 141 137 142 135 138 141 136 133 130 124 124 119 98 97 72 46 13 359 351 323 314 307 288 277 266 264 276 285 273 267 265 266 258 266 273
163 164 162 162 165 158 156 159 159 161 156 142 138 141 141 138 135 131 131 130 119 119 121 84 48 353 343 351 343 318 302 281 261 257 268 283 283 272 264 262 264 265 270
168 162 158 158 161 159 159 161 158 151 150 144 135 133 137 136 137 138 138 147 145 125 108 90 75 38 331 8 12 327 317 316 303 296 298 289 289 283 268 265 261 272 273
169 166 159 159 158 158 152 140 133 118 113 117 145 158 149 139 143 147 152 152 152 146 162 193 152 127 283 315 24 105 300 277 304 289 284 297 309 305 292 281 269 269 273
167 157 155 156 154 154 152 154 158 163 168 178 169 160 145 133 136 146 147 148 149 147 149 189 159 164 151 262 302 280 251 276 296 301 296 298 306 300 298 298 289 278 272
153 149 151 148 148 151 157 162 164 165 165 155 148 148 151 147 145 144 143 142 138 141 145 142 112 201 195 211 248 283 295 306 286 278 290 301 300 287 289 286 282 279 279
142 144 149 151 154 155 159 162 164 165 162 158 162 163 164 160 155 154 148 144 138 141 161 184 198 209 230 244 252 257 265 276 284 279 284 296 294 289 289 283 285 280 276